Regional Weather Roundup
Issued by NWS

Home | Current Version | Previous Version | Graphics & Text | Print | Product List | Glossary On
Versions: 1 2 3 4 5 6 7 8 9 10 11 12 13 14 15 16 17 18 19 20 21 22 23 24 25 26 27 28 29 30 31 32 33 34 35 36 37 38 39 40 41 42 43 44 45 46 47 48 49 50
000
ASUS43 KDTX 240410
RWRMI
MICHIGAN HOURLY REGIONAL WEATHER ROUNDUP
NATIONAL WEATHER SERVICE DETROIT/PONTIAC MI
1200 AM EDT THU JUL 24 2014

NOTE: "FAIR" INDICATES FEW OR NO CLOUDS BELOW 12,000 FEET WITH NO
SIGNIFICANT WEATHER AND/OR OBSTRUCTION TO VISIBILITY.

MIZ047>049-052>055-059>063-066>070-074>076-081>083-240500-
SOUTHEAST LOWER MICHIGAN

CITY           SKY/WX    TMP DP  RH WIND       PRES   REMARKS
ADRIAN         CLOUDY    66  55  67 E8        30.09S
ALMA           MOCLDY    59  54  83 NW3       30.12S
ANN ARBOR      PTCLDY    63  53  70 NE8       30.09S
BAD AXE        CLOUDY    54  50  86 CALM      30.11S
DETROIT CITY   PTCLDY    64  51  62 N9        30.09S
DETROIT        PTCLDY    63  53  70 N10       30.09S
FLINT          PTCLDY    60  50  69 CALM      30.11S
GROSSE ILE     PTCLDY    64  55  72 N12       30.07S
HILLSDALE      PTCLDY    65  58  78 CALM      30.09S
HOWELL         MOCLDY    60  53  75 CALM      30.11R

CITY           SKY/WX    TMP DP  RH WIND       PRES   REMARKS
JACKSON        CLOUDY    65  57  75 N5        30.10S
LAMBERTVILLE   CLEAR     63  55  77 CALM      30.09R
LANSING        MOCLDY    61  55  81 NE6       30.12S
LAPEER         NOT AVBL
MASON          MOCLDY    61  55  83 NE5       30.11S
MONROE         PTCLDY    61  57  88 CALM      30.07S
MT. CLEMENS    PTCLDY    59  52  78 NW7       30.08S
PONTIAC        MOCLDY    60  51  72 NE5       30.10S
PORT HOPE        N/A     64  56  75 CALM      30.08S
PORT HURON     PTCLDY    54  52  94 NW3       30.09F
TRI CITIES     CLOUDY    66  52  60 CALM      30.12S
YPSILANTI      PTCLDY    66  52  60 N8        30.10R
$$
MIZ043>046-050>051-056>058-064>065-071>073-077>080-240500-
SOUTHWEST LOWER MICHIGAN

CITY           SKY/WX    TMP DP  RH WIND       PRES   REMARKS
BATTLE CREEK   CLEAR     62  53  72 NE3       30.11S
BENTON HARBOR  CLEAR     60  56  86 NE5       30.11R
BIG RAPIDS     CLEAR     56  49  76 CALM      30.14S
COLDWATER      CLEAR     64  56  77 NE9       30.10S
HOLLAND        CLEAR     64  54  69 VRB5      30.13S
GRAND RAPIDS   PTCLDY    61  54  77 N7        30.12S
KALAMAZOO      CLEAR     61  53  75 N5        30.11S
MARSHALL       CLOUDY    61  55  81 CALM      30.10S
MUSKEGON       CLEAR     61  53  75 N8        30.14S
$$
MIZ016>042-240500-
NORTHERN LOWER MICHIGAN

CITY           SKY/WX    TMP DP  RH WIND       PRES   REMARKS
ALPENA         CLOUDY    57  49  74 NW7       30.12F
BEAVER ISLAND  CLEAR     51  49  93 CALM      30.16F
CADILLAC       CLEAR     52  49  91 NW3       30.15F
CHARLEVOIX     CLEAR     61  50  67 N7        30.18S
FRANKFORT      CLEAR     54  48  82 CALM      30.16S
GAYLORD        CLEAR     54  48  80 CALM      30.16S
GRAYLING       CLEAR     50  50 100 NW6       30.16S
HARBOR SPRINGS CLEAR     58  48  71 N7        30.14F
HOUGHTON LAKE  CLEAR     57  51  80 N6        30.15S
MANISTEE       CLEAR     54  48  82 NE6       30.16F
OSCODA         MOCLDY    57  50  78 NW6       30.11S
PELLSTON       CLEAR     51  48  89 W3        30.16S
TRAVERSE CITY  CLEAR     57  51  80 S3        30.14F
$$
MIZ007>008-015-240500-
EASTERN UPPER MICHIGAN

CITY           SKY/WX    TMP DP  RH WIND       PRES   REMARKS
KINROSS        CLEAR     52  48  87 NW8       30.15S
MACKINAC ISLAN CLEAR     54  48  81 N6        30.15S
NEWBERRY       CLEAR     50  45  83 NW3       30.16S
S. S. MARIE    CLEAR     50  46  86 W10       30.14S
$$
MIZ004>006-011>014-085-240500-
CENTRAL UPPER MICHIGAN

CITY           SKY/WX    TMP DP  RH WIND       PRES   REMARKS
MANISTIQUE     CLEAR     48  44  87 N5        30.16S
ESCANABA       CLEAR     52  45  76 CALM      30.16F
MENOMINEE      PTCLDY    55  50  82 CALM      30.17S
SAWYER-GWINN   CLEAR     52  46  80 CALM      30.18S
$$
MIZ001>003-009>011-084-240500-
WESTERN UPPER MICHIGAN

CITY           SKY/WX    TMP DP  RH WIND       PRES   REMARKS
IRON MOUNTAIN  CLEAR     53  47  79 CALM      30.18R
HOUGHTON       CLEAR     50  45  83 W5        30.17F
COPPER HARBOR    N/A     56  46  69 W5        30.16F
$$

ABBREVIATIONS USED IN REMARKS
   TC - TEMPERATURE IN CELSIUS
  WCI - WIND CHILL INDEX
   HX - HEAT INDEX
  VSB - VISIBILITY



USA.gov is the U.S. government's official web portal to all federal, state and local government web resources and services.